User: anonymous   Login
Location: Coffee Creek Observatory
(38.8077°N, 94.7179°W)
Time: 07:48:27
(UTC-06:00)
Language:

Lacrosse 4 Rocket - Orbit

View from above orbital plane
View from above orbital plane
View from above satellite
View from above satellite

Ground track
Ground track

The orbit data is extracted from the following two-line orbital elements,

1 26474U 00047B   16346.18122112  .00000244  00000-0  32416-4 0  9992
2 26474  67.9943   9.3389 0056114 175.1206 185.0496 14.95369566887273
Epoch (UTC): 11 December 2016 04:20:57
Eccentricity: 0.0056114
inclination: 67.9943°
perigee height: 542 km
apogee height: 620 km
right ascension of ascending node: 9.3389°
argument of perigee: 175.1206°
revolutions per day: 14.95369566
mean anomaly at epoch: 185.0496°
orbit number at epoch: 88727

The dashed part of the orbit path shows where the satellite is in the earth's shadow,  

DLR